Location: Staunton
(38.1490°N, 79.0720°W)
Time: 22:15:26
(UTC-05:00)

ISS - Pass Details

Date: 23 February 2021
Orbit: 417 x 422 km, 51.6° (Epoch: 26 February)

Event Time Altitude Azimuth Distance (km) Brightness Sun altitude
Exits shadow 04:59:50 38° 48° (NE) 652 -2.5 -23.6°
Drops below altitude 10° 05:02:02 10° 50° (NE) 1,494 -0.2 -23.1°
Sets 05:04:08 0° 51° (NE) 2,361 0.9 -22.7°
